Weather in La Fortuna

Costa Rica     10°28′35″N   84°37′52″W
temp.,
°C
wind,
m/s
gust,
m/s
humid.,
%
clouds,
%
prec.,
mm/h
press.,
hPa
HPBL,
m
22 april, thu
thu2200:00+20e2697100 1.1 1014436
03:00+20ene269991 0.7 1013310
06:00+20e3896100 1.6 1014409
09:00+21e478983 0.9 1015646
12:00+25e586714 1.4 10131198
15:00+26ene676261 0.1 10101465
18:00+21e369014 0.6 1012274
21:00+20ese259724 0.6 1015201
23 april, fri
fri2300:00+19ese239537 1.1 1014131
03:00+20e2395100 0.3 1013176
06:00+20e249695 0.8 1014202
09:00+21e359172 0.5 1016455
12:00+24ene467654 1.4 1014898
15:00+25e457048 0.6 10111056
18:00+22ese248337 0.8 1013107
21:00+20ese249573 0.3 1015168
24 april, sat
sat2400:00+19ese129538 0.4 101476
03:00+19se1193100 0.0 101330
06:00+19se129554 0.0 1015102
09:00+23ene348159 0.1 1015634
12:00+26ene346450 0.1 10131140
15:00+26ene336771 0.1 10111019
18:00+22e238645 0.2 101287
21:00+21e239497 0.1 1014176
25 april, sun
sun2500:00+20ese139740 0.1 1013119
03:00+19ese119661 0.0 101223
06:00+20ene129883 0.0 1014149
09:00+22ene358559 0.1 1015506
12:00+26e456210 0.2 10131130
15:00+29e35489 0.0 10101675
18:00+23e478124 0.1 1012423
21:00+20ese259635 0.3 1014224
26 april, mon
mon2600:00+19ese229653 0.3 101362
03:00+20e249783 0.0 1012232
06:00+20e269476 0.1 1013324
09:00+23e358496 0.1 1014580
12:00+25ene467388 0.9 1012988
15:00+24ene467991 1.2 1011794
18:00+21e369285 2.1 1012410
21:00+20ese269756 0.6 1014277